EJU16CR LFPO-LPPR

Flight info

Callsign EJU16CR
Flight time 1h 41m
Altitude 39000
Route N0447F390 LGL UT176 TERPO DCT ERIGA DCT AZFIC DCT LOTEE DCT ELTEP T328 ASPOR
Aircraft A320/M-SDE3FGHIRWY/LB1

Departure

Time 2026-05-04 16:31
Airport Paris-Orly Airport (LFPO)

Arrival

Time 2026-05-04 18:12
Airport Francisco de Sá Carneiro Airport (LPPR)
Time Latitude Longitude Altitude Speed Heading
2026-05-04 16:04 48.72839 2.35838 279 ft 0 kts 46°
2026-05-04 16:16 48.72838 2.35838 285 ft 0 kts 46°
2026-05-04 16:23 48.72812 2.35796 292 ft 2 kts 48°
2026-05-04 16:24 48.72776 2.35654 294 ft 4 kts 91°
2026-05-04 16:25 48.72797 2.35585 293 ft 4 kts 155°
2026-05-04 16:26 48.72820 2.35573 293 ft 0 kts 164°
2026-05-04 16:27 48.72773 2.35569 293 ft 7 kts 214°
2026-05-04 16:28 48.72518 2.35574 290 ft 14 kts 164°
2026-05-04 16:28 48.72258 2.35605 291 ft 11 kts 190°
2026-05-04 16:29 48.71986 2.35869 291 ft 15 kts 118°
2026-05-04 16:30 48.72161 2.37047 289 ft 113 kts 74°
2026-05-04 16:31 48.72768 2.40117 835 ft 166 kts 73°
2026-05-04 16:31 48.73760 2.45601 2383 ft 212 kts 74°
2026-05-04 16:32 48.75852 2.52138 4063 ft 262 kts 21°
2026-05-04 16:33 48.79355 2.51181 5808 ft 276 kts 319°
2026-05-04 16:33 48.80597 2.45754 7464 ft 286 kts 272°
2026-05-04 16:34 48.80600 2.39300 8245 ft 330 kts 269°
2026-05-04 16:34 48.80553 2.35689 8507 ft 354 kts 269°
2026-05-04 16:35 48.79622 2.24195 10375 ft 378 kts 246°
2026-05-04 16:35 48.76369 2.13185 12847 ft 386 kts 245°
2026-05-04 16:36 48.75256 2.09458 13560 ft 390 kts 245°
2026-05-04 16:36 48.73000 2.01904 14856 ft 396 kts 244°
2026-05-04 16:37 48.70728 1.94282 16096 ft 399 kts 244°
2026-05-04 16:37 48.69584 1.90438 16697 ft 401 kts 244°
2026-05-04 16:37 48.67279 1.82714 17909 ft 405 kts 244°
2026-05-04 16:38 48.64941 1.74926 18994 ft 409 kts 244°
2026-05-04 16:39 48.61370 1.63100 20433 ft 415 kts 244°
2026-05-04 16:39 48.58959 1.55140 21384 ft 419 kts 243°
2026-05-04 16:40 48.56535 1.47165 22267 ft 423 kts 243°
2026-05-04 16:40 48.54064 1.39075 23113 ft 426 kts 243°
2026-05-04 16:41 48.51572 1.30909 23879 ft 430 kts 243°
2026-05-04 16:41 48.47785 1.18517 24896 ft 437 kts 243°
2026-05-04 16:42 48.43923 1.06009 25872 ft 441 kts 243°
2026-05-04 16:43 48.41314 0.97621 26512 ft 443 kts 242°
2026-05-04 16:43 48.38689 0.89196 27125 ft 446 kts 242°
2026-05-04 16:43 48.37373 0.84971 27536 ft 445 kts 242°
2026-05-04 16:44 48.32161 0.68283 29381 ft 436 kts 242°
2026-05-04 16:45 48.29581 0.60082 30273 ft 432 kts 242°
2026-05-04 16:46 48.25724 0.47895 31304 ft 430 kts 242°
2026-05-04 16:46 48.23149 0.39795 31915 ft 431 kts 242°
2026-05-04 16:47 48.20572 0.31678 32601 ft 429 kts 241°
2026-05-04 16:47 48.18008 0.23629 33294 ft 427 kts 241°
2026-05-04 16:48 48.14105 0.11634 34206 ft 425 kts 235°
2026-05-04 16:48 48.12371 0.08087 34440 ft 423 kts 230°
2026-05-04 16:49 48.08741 0.01158 34934 ft 423 kts 230°
2026-05-04 16:49 48.05099 -0.05757 35452 ft 422 kts 229°
2026-05-04 16:50 48.01455 -0.12643 35904 ft 423 kts 229°
2026-05-04 16:50 47.97810 -0.19530 36364 ft 423 kts 229°
2026-05-04 16:51 47.94160 -0.26423 36734 ft 424 kts 230°
2026-05-04 16:51 47.92332 -0.29867 36908 ft 424 kts 230°
2026-05-04 16:51 47.88655 -0.36761 37252 ft 426 kts 230°
2026-05-04 16:52 47.84963 -0.43666 37597 ft 427 kts 230°
2026-05-04 16:52 47.83138 -0.47079 37762 ft 427 kts 230°
2026-05-04 16:53 47.79432 -0.54006 38064 ft 429 kts 230°
2026-05-04 16:53 47.73838 -0.64430 38485 ft 431 kts 230°
2026-05-04 16:54 47.71961 -0.67908 38612 ft 432 kts 230°
2026-05-04 16:55 47.64415 -0.81856 38952 ft 436 kts 230°
2026-05-04 16:55 47.60604 -0.88873 38947 ft 437 kts 230°
2026-05-04 16:56 47.51062 -1.06373 38942 ft 436 kts 230°
2026-05-04 16:57 47.45333 -1.16831 38943 ft 437 kts 230°
2026-05-04 16:58 47.37685 -1.30718 38953 ft 438 kts 229°
2026-05-04 17:00 47.26764 -1.50421 38958 ft 439 kts 229°
2026-05-04 17:01 47.17086 -1.67793 38979 ft 439 kts 229°
2026-05-04 17:02 47.09324 -1.81619 38972 ft 438 kts 229°
2026-05-04 17:03 47.03494 -1.91962 38974 ft 439 kts 229°
2026-05-04 17:03 46.97660 -2.02285 38980 ft 438 kts 229°
2026-05-04 17:04 46.89862 -2.16029 38973 ft 440 kts 229°
2026-05-04 17:05 46.81769 -2.29429 38973 ft 440 kts 224°
2026-05-04 17:06 46.75243 -2.38847 38977 ft 440 kts 223°
2026-05-04 17:07 46.69419 -2.47191 38976 ft 441 kts 224°
2026-05-04 17:07 46.64319 -2.54554 38972 ft 442 kts 224°
2026-05-04 17:08 46.57749 -2.64006 38974 ft 443 kts 224°
2026-05-04 17:09 46.53354 -2.70287 38970 ft 443 kts 224°
2026-05-04 17:09 46.48960 -2.76566 38983 ft 443 kts 224°
2026-05-04 17:10 46.37984 -2.92213 38998 ft 443 kts 224°
2026-05-04 17:11 46.33581 -2.98451 38994 ft 443 kts 224°
2026-05-04 17:12 46.26975 -3.07785 38999 ft 442 kts 223°
2026-05-04 17:13 46.15890 -3.23345 37214 ft 447 kts 223°
2026-05-04 17:14 46.09281 -3.32616 36980 ft 440 kts 223°
2026-05-04 17:14 46.07113 -3.35644 36980 ft 440 kts 223°
2026-05-04 17:15 46.00513 -3.44841 36989 ft 440 kts 223°
2026-05-04 17:16 45.91697 -3.57059 36990 ft 440 kts 223°
2026-05-04 17:17 45.82855 -3.69261 36983 ft 441 kts 223°
2026-05-04 17:18 45.74000 -3.81438 36984 ft 441 kts 223°
2026-05-04 17:19 45.65124 -3.93576 36991 ft 441 kts 223°
2026-05-04 17:20 45.56237 -4.05688 36985 ft 442 kts 223°
2026-05-04 17:20 45.49556 -4.14743 36980 ft 442 kts 223°
2026-05-04 17:21 45.40640 -4.26792 36985 ft 442 kts 223°
2026-05-04 17:22 45.36184 -4.32815 36987 ft 442 kts 223°
2026-05-04 17:23 45.27242 -4.44777 36980 ft 441 kts 223°
2026-05-04 17:24 45.20544 -4.53735 36982 ft 441 kts 223°
2026-05-04 17:25 45.11722 -4.65495 36957 ft 432 kts 223°
2026-05-04 17:25 45.07392 -4.71223 36991 ft 421 kts 223°
2026-05-04 17:26 45.03132 -4.76825 36999 ft 421 kts 220°
2026-05-04 17:26 44.96137 -4.84697 37005 ft 436 kts 217°
2026-05-04 17:27 44.91270 -4.89936 37002 ft 445 kts 217°
2026-05-04 17:28 44.81302 -5.00817 37007 ft 458 kts 218°
2026-05-04 17:29 44.66156 -5.17330 37005 ft 459 kts 218°
2026-05-04 17:31 44.53507 -5.31035 37011 ft 459 kts 218°
2026-05-04 17:32 44.40844 -5.44653 37007 ft 460 kts 218°
2026-05-04 17:33 44.30678 -5.55540 37013 ft 461 kts 218°
2026-05-04 17:34 44.20494 -5.66384 37010 ft 460 kts 218°
2026-05-04 17:35 44.07807 -5.79854 37019 ft 461 kts 218°
2026-05-04 17:36 44.02703 -5.85241 37022 ft 461 kts 218°
2026-05-04 17:36 43.97596 -5.90626 37031 ft 461 kts 218°
2026-05-04 17:37 43.92492 -5.95996 37038 ft 461 kts 218°
2026-05-04 17:37 43.87380 -6.01359 37037 ft 461 kts 218°
2026-05-04 17:38 43.82266 -6.06711 37037 ft 460 kts 218°
2026-05-04 17:38 43.77155 -6.12055 37043 ft 461 kts 218°
2026-05-04 17:39 43.69474 -6.20055 37043 ft 461 kts 218°
2026-05-04 17:39 43.64339 -6.25387 37046 ft 462 kts 218°
2026-05-04 17:40 43.59241 -6.30669 37065 ft 462 kts 218°
2026-05-04 17:40 43.54102 -6.35983 37063 ft 461 kts 218°
2026-05-04 17:41 43.48971 -6.41284 37063 ft 461 kts 218°
2026-05-04 17:41 43.43830 -6.46582 37050 ft 461 kts 218°
2026-05-04 17:42 43.38690 -6.51856 37057 ft 461 kts 219°
2026-05-04 17:42 43.33549 -6.57127 37063 ft 461 kts 219°
2026-05-04 17:43 43.28404 -6.62399 37064 ft 461 kts 219°
2026-05-04 17:43 43.23288 -6.67634 37054 ft 461 kts 219°
2026-05-04 17:44 43.18142 -6.72877 37067 ft 461 kts 219°
2026-05-04 17:44 43.12992 -6.78104 37072 ft 460 kts 219°
2026-05-04 17:45 43.07842 -6.83321 37074 ft 461 kts 219°
2026-05-04 17:45 43.02694 -6.88535 37069 ft 460 kts 219°
2026-05-04 17:46 42.98379 -6.92894 37054 ft 460 kts 219°
2026-05-04 17:46 42.93260 -6.98059 37062 ft 461 kts 219°
2026-05-04 17:47 42.88103 -7.03255 37067 ft 460 kts 219°
2026-05-04 17:47 42.82946 -7.08427 37065 ft 460 kts 219°
2026-05-04 17:48 42.77789 -7.13594 37069 ft 460 kts 219°
2026-05-04 17:48 42.72636 -7.18748 37084 ft 460 kts 219°
2026-05-04 17:49 42.67484 -7.23896 37079 ft 460 kts 219°
2026-05-04 17:49 42.62323 -7.29034 37074 ft 460 kts 219°
2026-05-04 17:50 42.57154 -7.34163 37079 ft 460 kts 219°
2026-05-04 17:50 42.51984 -7.39289 37079 ft 460 kts 219°
2026-05-04 17:51 42.46808 -7.44415 37081 ft 461 kts 219°
2026-05-04 17:51 42.41626 -7.49533 37081 ft 461 kts 219°
2026-05-04 17:52 42.36467 -7.54612 37066 ft 461 kts 219°
2026-05-04 17:52 42.31244 -7.59744 37089 ft 461 kts 219°
2026-05-04 17:53 42.26062 -7.64833 37087 ft 460 kts 219°
2026-05-04 17:53 42.20883 -7.69909 37088 ft 460 kts 219°
2026-05-04 17:54 42.18328 -7.72410 36949 ft 458 kts 219°
2026-05-04 17:54 42.15753 -7.74924 36239 ft 457 kts 219°
2026-05-04 17:54 42.13177 -7.77433 35462 ft 457 kts 219°
2026-05-04 17:54 42.10607 -7.79934 34764 ft 455 kts 220°
2026-05-04 17:55 42.08049 -7.82426 34044 ft 454 kts 220°
2026-05-04 17:55 42.05484 -7.84925 33163 ft 454 kts 220°
2026-05-04 17:55 42.02927 -7.87410 32293 ft 453 kts 220°
2026-05-04 17:55 42.00374 -7.89887 31437 ft 452 kts 220°
2026-05-04 17:56 41.97824 -7.92357 30601 ft 451 kts 220°
2026-05-04 17:56 41.95283 -7.94815 29664 ft 450 kts 220°
2026-05-04 17:56 41.92744 -7.97273 28524 ft 450 kts 220°
2026-05-04 17:56 41.90206 -7.99735 27296 ft 451 kts 220°
2026-05-04 17:57 41.87664 -8.02196 26584 ft 449 kts 220°
2026-05-04 17:57 41.85113 -8.04658 26327 ft 453 kts 220°
2026-05-04 17:57 41.82542 -8.07134 25544 ft 456 kts 220°
2026-05-04 17:57 41.79843 -8.09392 24357 ft 460 kts 214°
2026-05-04 17:58 41.77090 -8.11448 23178 ft 444 kts 214°
2026-05-04 17:58 41.74426 -8.13428 21753 ft 432 kts 213°
2026-05-04 17:58 41.71817 -8.15365 20183 ft 429 kts 212°
2026-05-04 17:58 41.69096 -8.17000 19287 ft 440 kts 204°
2026-05-04 17:59 41.66183 -8.18321 19024 ft 442 kts 203°
2026-05-04 17:59 41.63272 -8.19659 18669 ft 441 kts 203°
2026-05-04 17:59 41.57493 -8.22337 18090 ft 439 kts 203°
2026-05-04 18:00 41.54612 -8.23667 17942 ft 438 kts 202°
2026-05-04 18:00 41.51730 -8.24990 17835 ft 437 kts 202°
2026-05-04 18:00 41.48875 -8.26291 17500 ft 424 kts 202°
2026-05-04 18:00 41.46134 -8.27527 16243 ft 411 kts 202°
2026-05-04 18:01 41.43455 -8.28737 14949 ft 403 kts 202°
2026-05-04 18:01 41.40821 -8.29931 13683 ft 396 kts 202°
2026-05-04 18:01 41.38242 -8.31107 12322 ft 388 kts 202°
2026-05-04 18:02 41.33235 -8.33386 10274 ft 375 kts 201°
2026-05-04 18:02 41.30707 -8.34541 10033 ft 390 kts 201°
2026-05-04 18:02 41.28125 -8.35719 9899 ft 394 kts 201°
2026-05-04 18:02 41.25532 -8.36894 9778 ft 394 kts 201°
2026-05-04 18:03 41.22928 -8.38070 9703 ft 395 kts 201°
2026-05-04 18:03 41.20325 -8.39240 9657 ft 395 kts 201°
2026-05-04 18:03 41.17722 -8.40411 9630 ft 395 kts 201°
2026-05-04 18:03 41.15157 -8.41567 9617 ft 395 kts 201°
2026-05-04 18:04 41.12550 -8.42743 9611 ft 395 kts 201°
2026-05-04 18:04 41.09943 -8.43915 9610 ft 394 kts 201°
2026-05-04 18:04 41.04870 -8.46182 8372 ft 372 kts 201°
2026-05-04 18:05 41.02471 -8.47367 7036 ft 362 kts 211°
2026-05-04 18:05 41.00605 -8.49448 5742 ft 346 kts 237°
2026-05-04 18:05 40.99703 -8.52284 4665 ft 328 kts 261°
2026-05-04 18:05 40.99299 -8.55136 4246 ft 301 kts 261°
2026-05-04 18:06 40.99073 -8.60012 4025 ft 236 kts 296°
2026-05-04 18:06 41.00094 -8.61479 4028 ft 209 kts 332°
2026-05-04 18:06 41.01431 -8.61971 4032 ft 190 kts 345°
2026-05-04 18:07 41.02673 -8.62295 4066 ft 178 kts 346°
2026-05-04 18:07 41.03891 -8.62617 4042 ft 178 kts 345°
2026-05-04 18:07 41.05112 -8.62944 3931 ft 180 kts 346°
2026-05-04 18:07 41.06331 -8.63272 3649 ft 177 kts 345°
2026-05-04 18:08 41.07517 -8.63588 3404 ft 176 kts 345°
2026-05-04 18:08 41.08720 -8.63904 3140 ft 176 kts 346°
2026-05-04 18:08 41.09904 -8.64211 2895 ft 168 kts 346°
2026-05-04 18:08 41.11006 -8.64494 2684 ft 155 kts 345°
2026-05-04 18:09 41.13001 -8.65010 2291 ft 141 kts 345°
2026-05-04 18:09 41.14901 -8.65509 1924 ft 139 kts 346°
2026-05-04 18:10 41.15845 -8.65757 1734 ft 137 kts 343°
2026-05-04 18:10 41.16775 -8.66001 1550 ft 138 kts 345°
2026-05-04 18:10 41.17714 -8.66246 1377 ft 137 kts 345°
2026-05-04 18:10 41.18657 -8.66493 1186 ft 138 kts 346°
2026-05-04 18:11 41.19590 -8.66736 1005 ft 137 kts 346°
2026-05-04 18:11 41.20534 -8.66988 812 ft 139 kts 344°
2026-05-04 18:11 41.21469 -8.67268 635 ft 138 kts 345°
2026-05-04 18:11 41.22408 -8.67499 471 ft 138 kts 345°
2026-05-04 18:12 41.23343 -8.67740 294 ft 136 kts 347°
2026-05-04 18:12 41.24226 -8.67978 218 ft 111 kts 351°
2026-05-04 18:12 41.24743 -8.68111 200 ft 55 kts 349°
2026-05-04 18:12 41.25008 -8.68172 189 ft 31 kts 357°
2026-05-04 18:13 41.25186 -8.68144 183 ft 22 kts 16°
2026-05-04 18:13 41.25281 -8.68099 179 ft 16 kts 30°
2026-05-04 18:13 41.25204 -8.67999 187 ft 8 kts 167°
2026-05-04 18:14 41.25155 -8.67986 195 ft 7 kts 169°
2026-05-04 18:14 41.25050 -8.67958 197 ft 20 kts 169°
2026-05-04 18:14 41.24934 -8.67928 200 ft 11 kts 168°
2026-05-04 18:15 41.24789 -8.67847 206 ft 16 kts 151°
2026-05-04 18:15 41.24637 -8.67793 213 ft 7 kts 169°
2026-05-04 18:15 41.24575 -8.67778 216 ft 13 kts 168°
2026-05-04 18:16 41.24464 -8.67749 222 ft 17 kts 168°
2026-05-04 18:16 41.24352 -8.67721 228 ft 18 kts 167°
2026-05-04 18:16 41.24265 -8.67638 234 ft 14 kts 127°
2026-05-04 18:17 41.24099 -8.67443 242 ft 17 kts 160°
2026-05-04 18:17 41.23999 -8.67423 242 ft 13 kts 194°
2026-05-04 18:17 41.23913 -8.67408 242 ft 2 kts 124°
2026-05-04 18:18 41.23906 -8.67393 243 ft 2 kts 124°
2026-05-04 18:18 41.23903 -8.67388 243 ft 2 kts 125°
2026-05-04 18:18 41.23901 -8.67383 243 ft 0 kts 125°